Regional Weather Roundup
Issued by NWS

Home | Current Version | Previous Version | Text Only | Print | Product List | Glossary On
Versions: 1 2 3 4 5 6 7 8 9 10 11 12 13 14 15 16 17 18 19 20 21 22 23 24 25 26 27 28 29 30 31 32 33 34 35 36 37 38 39 40 41 42 43 44 45 46 47 48 49 50
000
ASUS44 KLUB 011510
RWRTX
WEST TEXAS WEATHER ROUNDUP
NATIONAL WEATHER SERVICE LUBBOCK TX
1000 AM CDT FRI AUG 01 2014

NOTE: "FAIR" INDICATES FEW OR NO CLOUDS BELOW 12,000 FEET WITH NO
SIGNIFICANT WEATHER AND/OR OBSTRUCTIONS TO VISIBILITY.

TXZ004-006>008-010-012-014-016-OKZ002-011600-
TEXAS PANHANDLE/OKLAHOMA PANHANDLE

CITY           SKY/WX    TMP DP  RH WIND       PRES   REMARKS
AMARILLO       PTSUNNY   72  55  55 NW10      30.23R
BORGER         MOSUNNY   72  59  63 W5        30.20S
CANADIAN       SUNNY     72  64  78 CALM      30.16S
DALHART        PTSUNNY   75  55  49 W9        30.26R
DUMAS          MOSUNNY   74  54  50 W6        30.24R
GUYMON         SUNNY     75  59  57 W10       30.19R
HEREFORD       CLOUDY    68  62  78 MISG      30.25R
PAMPA          MOSUNNY   70  56  61 W8        30.21S
PERRYTON       SUNNY     74  58  58 NW8       30.18S
$$

TXZ026-029-035-045-048-011600-
SOUTHERN PANHANDLE/SOUTH PLAINS/ROLLING PLAINS

CITY           SKY/WX    TMP DP  RH WIND       PRES   REMARKS
CHILDRESS      MOSUNNY   72  64  76 NW6       30.16S
SEMINOLE       PTSUNNY   73  59  62 CALM      30.22R
LUBBOCK        PTSUNNY   73  60  63 CALM      30.20S
PLAINVIEW      CLOUDY    70  61  73 NW7       30.21R
SNYDER         PTSUNNY   71  62  73 NE5       30.17S
$$

TXZ052-054-060>062-072-078-127-140-154-169-011600-
PERMIAN BASIN/CONCHO VALLEY/BIG COUNTRY/EDWARDS PLATEAU

CITY           SKY/WX    TMP DP  RH WIND       PRES   REMARKS
ABILENE        PTSUNNY   74  65  73 N8        30.13R
BIG SPRING     PTSUNNY   75  60  58 E3        30.19R
BROWNWOOD      MOSUNNY   75  63  64 N9        30.10S
JUNCTION       CLOUDY    73  64  73 E7        30.11R
MIDLAND        CLOUDY    72  60  66 S5        30.19R
ODESSA         CLOUDY    71  58  63 S6        30.21R
SAN ANGELO     PTSUNNY   74  64  71 CALM      30.13R
SONORA         MOSUNNY   75  63  64 NE6       30.16F
SWEETWATER     PTSUNNY   72  64  78 N3        30.19S
WINK           CLOUDY    71  64  78 SE5       30.19S
$$

TXZ055-058-074-075-080-082-011600-
FAR WEST/SOUTHWEST MOUNTAINS/TRANS PECOS

CITY           SKY/WX    TMP DP  RH WIND       PRES   REMARKS
ALPINE         CLOUDY    64  62  94 E3        30.33R
DRYDEN           N/A     81  62  52 NE10      30.12R
EL PASO        LGT RAIN  67  63  87 NE3       30.20S
FORT STOCKTON  LGT RAIN  66  63  90 CALM      30.22S FOG
GUADALUPE PASS RAIN      59  59 100 NE18      30.31R VSB<1/4
MARFA          CLOUDY    66  61  82 CALM      30.29S
PECOS          CLOUDY    69  65  88 E10       30.17S
PRESIDIO       LGT RAIN  67  65  94 NE3       30.16S
$$

TXZ014-016-019-021>030-083-011600
TEXAS TECH WEST TEXAS MESONET/TEXAS PANHANDLE/NORTHERN SOUTH PLAINS

CITY           SKY/WX    TMP DP  RH WIND       PRES   REMARKS
ABERNATHY 5ENE   N/A     70  60  70 NW3       30.22S
AMARILLO 9NNE    N/A     71  57  61 NW7       30.22S
AMARILLO 7SSE    N/A     74  55  51 NW8       30.24R
AMHERST 1NE      N/A     68  58  68 NW6       30.23R
BOOTLEG 11WNW    N/A     67  57  71 W5        30.29S
CANADIAN 6E      N/A     73  62  68 W7        30.15S
CAPROCK CYN SP   N/A     70  62  75 W3        30.19S
CHILDRESS 2NNE   N/A     72  64  77 NW2       30.16R
CLARENDON 2WSW   N/A     70  60  69 W2        30.19S
CLAUDE 12SW      N/A     74  56  54 W5        30.22S
DIMMITT 2NE      N/A     66  58  76 W5        30.25R
FLOYDADA 2NNE    N/A     70  60  70 NW3       30.21R
FRIONA 2NE       N/A     69  55  60 W6        30.26S
GOODLETT 3W      N/A     75  64  68 NW2       30.13S
HART 3N          N/A     66  59  79 NW5       30.24R
HEREFORD 2NW     N/A     67  57  70 W5        30.25R
MCLEAN 1E        N/A     72  62  70 W7        30.17S
MEMPHIS 1NE      N/A     72  64  76 SW3       30.16R
MULESHOE 2SSW    N/A     67  58  72 W5        30.25R
OLTON 6S         N/A     67  58  70 N5        30.23R
PALO DURO SP     N/A     73  55  53 W8        30.23S
PAMPA 2E         N/A     71  58  61 W9        30.20S
PLAINVIEW 1S     N/A     69  60  73 W7        30.21S
TULIA 2ENE       N/A     66  60  81 W5        30.23R
TURKEY 2WSW      N/A     72  62  71 W5        30.17S
UMBARGER 3NNE    N/A     69  56  63 NW8       30.25R
$$

TXZ033>036-039>041-045>048-011600
TEXAS TECH WEST TEXAS MESONET/SOUTH PLAINS

CITY           SKY/WX    TMP DP  RH WIND       PRES   REMARKS
AIKEN 3WSW       N/A     71  60  70 W8        30.22S
ANDREWS 2NE      N/A     72  58  60 E2        30.20R
ANTON 6SSW       N/A     68  60  76 W1        30.22R
BROWNFIELD 2S    N/A     71  58  64 SE1       30.21S
DENVR CTY 7WNW   N/A     71  56  59 S1        30.22S
GAIL 2ESE        N/A     74  58  57 N5        30.16S
LAMESA 2SE       N/A     73  59  61 N3        30.19S
LEVELLAND 4S     N/A     68  60  74 CALM      30.22S
LUBBOCK 3WNW     N/A     72  59  62 SW2       30.21S
MORTON 1ENE      N/A     68  60  74 W5        30.23S
ODONNELL 1N      N/A     73  57  56 N2        30.19F
PLAINS 3N        N/A     70  59  68 W1        30.23S
RALLS 1SE        N/A     71  59  65 N2        30.21S
REESE CENTER     N/A     69  59  72 W5        30.21S
SEAGRAVES 1SW    N/A     74  59  59 E1        30.20F
SEMINOLE 2NNE    N/A     74  59  60 E2        30.20S
SLATON 2NE       N/A     71  59  64 W2        30.20S
SNYDER 3E        N/A     73  63  69 NE6       30.16S
SUNDOWN 8SW      N/A     70  60  70 S5        30.22S
TAHOKA 3NNE      N/A     73  57  57 NW5       30.19S
WOLFFORTH 6SSW   N/A     72  59  64 W1        30.21S
$$

TXZ031-032-036>038-042>044-011600-
TEXAS TECH WEST TEXAS MESONET/ROLLING PLAINS

CITY           SKY/WX    TMP DP  RH WIND       PRES   REMARKS
ASPERMONT 3NE    N/A     75  64  67 N5        30.14R
FLUVANNA 3WNW    N/A     74  59  59 N2        30.17S
GRAHAM 5SSW      N/A     74  58  56 SE1       30.18S
GUTHRIE 10WSW    N/A     75  61  61 N6        30.14S
HASKELL 1NW      N/A     72  64  73 N6        30.12S
JAYTON 1SSE      N/A     74  62  64 N2        30.15S
KNOX CITY 3NW    N/A     76  62  62 NE5       30.13S
LK A HENRY 1NW   N/A     77  59  53 E3        30.16S
NORTHFIELD 1S    N/A     74  62  68 W3        30.16S
ODELL 4ENE       N/A     74  68  80 N6        30.13S
PADUCAH 10SW     N/A     76  62  62 N7        30.15S
POST 1NE         N/A     73  58  59 N1        30.17S
RRING SPRGS 3N   N/A     74  61  63 N3        30.17S
SEYMOUR 3NW      N/A     75  64  69 N6        30.12R
SPUR 1W          N/A     74  59  58 NW3       30.15S
WEINERT 2NNE     N/A     76  66  69 NE5       30.13S
WHITE RVR 6NE    N/A     74  58  58 NW3       30.18R
$$

TXZ052-054-060>062-072-078-127-140-154-169-011600-
TEXAS TECH WEST TEXAS MESONET/PERMIAN BASIN/
CONCHO VALLEY/BIG COUNTRY/EDWARDS PLATEAU

CITY           SKY/WX    TMP DP  RH WIND       PRES   REMARKS
COYANOSA 2N      N/A     69  67  93 E2        30.20S
JUNCTION 1SSW    N/A     74  64  73 N5        30.11S
MERTZON 3NNE     N/A     72  64  75 NE1       30.15S
SAN ANGELO 7NW   N/A     76  61  59 E5        30.13S
STRLNG CT 4WSW   N/A     73  63  69 NE5       30.17R
ST LAWRNCE 5SW   N/A     73  60  65 SE1       30.18R
SWEETWATR 11SW   N/A     73  63  72 N7        30.18R
WALL 1E          N/A     74  64  69 NE3       30.13S
$$

TXZ055-058-074-075-080-082-011600-
TEXAS TECH WEST TEXAS MESONET/FAR WEST/SOUTHWEST MOUNTAINS/TRANS PECOS

CITY           SKY/WX    TMP DP  RH WIND       PRES   REMARKS
PRSMN GAP BBNP   N/A     74  62  66 NE16      30.15F
GUADLPE MTN NP   N/A     59  58  96 NE6       30.32R
$$


USA.gov is the U.S. government's official web portal to all federal, state and local government web resources and services.